Location: Tuttlingen
(47.9853°N, 8.8165°E)
Time: 19:20:38
(UTC+01:00)

ISS - Pass Details

Date: 15 November 2017
Orbit: 402 x 407 km, 51.6° (Epoch: 24 November)

Event Time Altitude Azimuth Distance (km) Brightness Sun altitude
Exits shadow 04:55:19 25° 104° (ESE) 846 -1.6 -25.9°
Drops below altitude 10° 04:56:51 10° 108° (ESE) 1,453 -0.1 -25.7°
Sets 04:58:56 0° 110° (ESE) 2,310 1.1 -25.3°
